Find CP5

NORAD ID: 38763 Int'l Des: 2012-048 Owner: CALP Country: US operational
LEO

Live Position

Loading 3D Globe...

About CP5

Description loading...

Upcoming Passes

Passes for default location (London). Set your location on the main map for personalized predictions.

Altitude History

Loading altitude history...

Two-Line Element Set

1 38763U 12048F 26105.78266493 .00005952 00000-0 21168-3 0 9993
2 38763 64.6477 358.5783 0090901 195.2167 164.6226 15.26147217107238
Epoch: Apr 15, 2026 • Age: 9 hours

Current Status

Altitude 551.0 km
Velocity 7.55 km/s
Sub-Earth Point 12.34°N, 94.65°E
Launch Date Sep 13, 2012
Age 13.5 years
Type other

Technical Details

Classification Payload
Mass 1.00 kg
Dry Mass 1.00 kg
Total Mass 1.00 kg
Length 0.10 m
Diameter 0.10 m
Span 0.20 m
Shape Box+Ant
Manufacturer CALP
Bus Type Cubesat 1U
Phase Status In Orbit
Owner/State CALP/US

Most Searched